Big Bear Station Historical Data
Daily Summary for October 26, 2017 Units:  English    Metric   Both
Next Day »
Daily Weekly Monthly Yearly Custom
  High: Low: Average:
Temperature: 70.7 °F 36.5 °F 50.3 °F
Dew Point: 35.5 °F 24.5 °F 29.6 °F
Humidity: 81% 23% 50%
Wind Speed: 5.8mph 0.0mph 0.8mph
Wind Gust: -999.0mph - -
Wind- - WNW
Pressure: 23.60 in 23.54 in -
Precipitation: 0.00 in    
Historical Graphs
 
 
Tabular Data for October 26, 2017
Time Temperature Dew Point Pressure Wind Wind Speed Wind Gust Humidity Rainfall Rate (Hourly)
00:10 41.2 °F 27.1 °F 23.57 in Calm   -999.0 mph 57% 0 in
00:25 41.0 °F 27.3 °F 23.57 in Calm   -999.0 mph 58% 0 in
00:40 41.0 °F 27.8 °F 23.57 in Calm   -999.0 mph 59% 0 in
00:55 40.6 °F 27.8 °F 23.57 in Calm   -999.0 mph 60% 0 in
01:10 40.3 °F 27.9 °F 23.56 in Calm   -999.0 mph 61% 0 in
01:26 40.3 °F 27.9 °F 23.56 in Calm   -999.0 mph 61% 0 in
01:41 39.9 °F 28.7 °F 23.56 in SSE 1.7 mph -999.0 mph 64% 0 in
01:56 39.2 °F 28.8 °F 23.56 in Calm   -999.0 mph 66% 0 in
02:11 39.4 °F 28.6 °F 23.56 in Calm   -999.0 mph 65% 0 in
02:26 39.0 °F 29.3 °F 23.56 in Calm   -999.0 mph 68% 0 in
02:42 38.8 °F 29.5 °F 23.56 in Calm   -999.0 mph 69% 0 in
02:57 38.5 °F 29.2 °F 23.56 in Calm   -999.0 mph 69% 0 in
03:12 38.8 °F 29.5 °F 23.56 in Calm   -999.0 mph 69% 0 in
03:27 38.7 °F 29.4 °F 23.55 in Calm   -999.0 mph 69% 0 in
03:43 38.5 °F 29.9 °F 23.55 in Calm   -999.0 mph 71% 0 in
03:58 38.1 °F 30.9 °F 23.55 in Calm   -999.0 mph 75% 0 in
04:13 37.8 °F 30.6 °F 23.55 in Calm   -999.0 mph 75% 0 in
04:28 37.8 °F 30.3 °F 23.55 in Calm   -999.0 mph 74% 0 in
04:43 37.6 °F 30.7 °F 23.55 in Calm   -999.0 mph 76% 0 in
04:59 37.2 °F 30.0 °F 23.56 in Calm   -999.0 mph 75% 0 in
05:14 37.0 °F 29.8 °F 23.56 in Calm   -999.0 mph 75% 0 in
05:29 37.0 °F 30.1 °F 23.56 in Calm   -999.0 mph 76% 0 in
05:44 36.9 °F 30.0 °F 23.56 in Calm   -999.0 mph 76% 0 in
05:59 37.0 °F 29.8 °F 23.56 in Calm   -999.0 mph 75% 0 in
06:15 36.5 °F 30.6 °F 23.56 in Calm   -999.0 mph 79% 0 in
06:30 37.0 °F 31.1 °F 23.56 in Calm   -999.0 mph 79% 0 in
06:45 36.5 °F 30.9 °F 23.56 in Calm   -999.0 mph 80% 0 in
07:00 36.9 °F 31.3 °F 23.56 in Calm   -999.0 mph 80% 0 in
07:15 37.0 °F 31.7 °F 23.56 in Calm   -999.0 mph 81% 0 in
07:31 37.0 °F 31.1 °F 23.57 in Calm   -999.0 mph 79% 0 in
07:46 36.7 °F 30.8 °F 23.57 in Calm   -999.0 mph 79% 0 in
08:01 38.1 °F 31.8 °F 23.57 in Calm   -999.0 mph 78% 0 in
08:16 37.8 °F 31.2 °F 23.57 in Calm   -999.0 mph 77% 0 in
08:31 40.1 °F 31.8 °F 23.58 in Calm   -999.0 mph 72% 0 in
08:47 39.4 °F 31.5 °F 23.58 in Calm   -999.0 mph 73% 0 in
09:02 40.6 °F 32.3 °F 23.58 in Calm   -999.0 mph 72% 0 in
09:17 42.1 °F 32.7 °F 23.58 in Calm   -999.0 mph 69% 0 in
09:32 43.9 °F 32.9 °F 23.58 in Calm   -999.0 mph 65% 0 in
09:48 46.6 °F 35.5 °F 23.58 in Calm   -999.0 mph 65% 0 in
10:03 48.7 °F 35.0 °F 23.58 in Calm   -999.0 mph 59% 0 in
10:18 58.6 °F 28.0 °F 23.58 in Calm   -999.0 mph 31% 0 in
10:33 57.7 °F 29.5 °F 23.58 in Calm   -999.0 mph 34% 0 in
10:48 63.0 °F 34.2 °F 23.58 in NW 1.1 mph -999.0 mph 34% 0 in
11:04 64.6 °F 33.3 °F 23.58 in Calm   -999.0 mph 31% 0 in
11:19 66.0 °F 31.1 °F 23.58 in NW 2.2 mph -999.0 mph 27% 0 in
11:34 67.1 °F 31.1 °F 23.58 in NW 1.7 mph -999.0 mph 26% 0 in
11:50 68.5 °F 30.3 °F 23.58 in NW 3.7 mph -999.0 mph 24% 0 in
12:05 68.4 °F 32.2 °F 23.58 in WNW 2.7 mph -999.0 mph 26% 0 in
12:21 69.8 °F 30.3 °F 23.57 in NNW 2.2 mph -999.0 mph 23% 0 in
12:36 70.3 °F 30.7 °F 23.57 in NW 3.2 mph -999.0 mph 23% 0 in
12:52 70.2 °F 33.7 °F 23.56 in NNW 3.7 mph -999.0 mph 26% 0 in
13:07 70.7 °F 31.1 °F 23.56 in NNE 4.7 mph -999.0 mph 23% 0 in
13:22 70.2 °F 32.7 °F 23.56 in NW 2.2 mph -999.0 mph 25% 0 in
13:37 70.3 °F 33.8 °F 23.56 in WNW 4.2 mph -999.0 mph 26% 0 in
13:53 70.2 °F 30.7 °F 23.56 in NW 3.7 mph -999.0 mph 23% 0 in
14:08 69.1 °F 31.8 °F 23.55 in NW 5.8 mph -999.0 mph 25% 0 in
14:23 68.9 °F 31.6 °F 23.55 in NW 3.7 mph -999.0 mph 25% 0 in
14:38 68.5 °F 31.3 °F 23.54 in Calm   -999.0 mph 25% 0 in
14:54 68.9 °F 30.6 °F 23.55 in WNW 2.2 mph -999.0 mph 24% 0 in
15:09 68.4 °F 32.2 °F 23.55 in WNW 2.7 mph -999.0 mph 26% 0 in
15:25 67.8 °F 33.5 °F 23.55 in NNW 3.2 mph -999.0 mph 28% 0 in
15:40 67.1 °F 32.0 °F 23.55 in NW 3.7 mph -999.0 mph 27% 0 in
15:55 66.4 °F 29.5 °F 23.55 in WNW 1.7 mph -999.0 mph 25% 0 in
16:10 65.7 °F 29.9 °F 23.56 in NW 3.2 mph -999.0 mph 26% 0 in
16:25 65.3 °F 29.5 °F 23.56 in NNW 3.7 mph -999.0 mph 26% 0 in
16:41 64.8 °F 30.0 °F 23.56 in WNW 2.2 mph -999.0 mph 27% 0 in
16:56 64.2 °F 27.6 °F 23.56 in WNW 2.2 mph -999.0 mph 25% 0 in
17:11 63.5 °F 29.8 °F 23.56 in NW 1.7 mph -999.0 mph 28% 0 in
17:26 62.4 °F 28.0 °F 23.56 in Calm   -999.0 mph 27% 0 in
17:41 61.3 °F 34.8 °F 23.56 in NNW 3.2 mph -999.0 mph 37% 0 in
17:57 60.4 °F 33.3 °F 23.56 in Calm   -999.0 mph 36% 0 in
18:12 58.3 °F 28.6 °F 23.56 in Calm   -999.0 mph 32% 0 in
18:28 57.2 °F 29.1 °F 23.57 in Calm   -999.0 mph 34% 0 in
18:43 55.8 °F 26.4 °F 23.57 in Calm   -999.0 mph 32% 0 in
18:58 54.7 °F 25.4 °F 23.58 in Calm   -999.0 mph 32% 0 in
19:13 53.4 °F 27.1 °F 23.58 in Calm   -999.0 mph 36% 0 in
19:28 52.3 °F 27.4 °F 23.58 in Calm   -999.0 mph 38% 0 in
19:44 51.1 °F 26.4 °F 23.58 in Calm   -999.0 mph 38% 0 in
19:59 50.2 °F 25.6 °F 23.58 in Calm   -999.0 mph 38% 0 in
20:14 49.1 °F 24.6 °F 23.59 in Calm   -999.0 mph 38% 0 in
20:29 48.2 °F 25.0 °F 23.59 in Calm   -999.0 mph 40% 0 in
20:45 47.7 °F 24.5 °F 23.59 in Calm   -999.0 mph 40% 0 in
21:00 46.6 °F 25.8 °F 23.59 in Calm   -999.0 mph 44% 0 in
21:15 46.0 °F 25.8 °F 23.59 in Calm   -999.0 mph 45% 0 in
21:30 45.5 °F 25.9 °F 23.60 in Calm   -999.0 mph 46% 0 in
21:45 44.6 °F 26.6 °F 23.60 in Calm   -999.0 mph 49% 0 in
22:01 44.2 °F 26.2 °F 23.60 in Calm   -999.0 mph 49% 0 in
22:16 43.7 °F 27.2 °F 23.60 in Calm   -999.0 mph 52% 0 in
22:31 43.3 °F 27.3 °F 23.60 in Calm   -999.0 mph 53% 0 in
22:46 42.6 °F 26.2 °F 23.60 in Calm   -999.0 mph 52% 0 in
23:01 42.1 °F 25.3 °F 23.60 in Calm   -999.0 mph 51% 0 in
23:17 41.5 °F 25.2 °F 23.60 in Calm   -999.0 mph 52% 0 in
23:32 41.2 °F 24.9 °F 23.60 in Calm   -999.0 mph 52% 0 in
23:47 41.0 °F 25.2 °F 23.60 in Calm   -999.0 mph 53% 0 in
Big Bear CA Weather